Météo par heure à Alost

Ce jour, 2 Décembre, Mercredi

Heure Température Précipitation Vent Pression Humidité
00:00 +6°C° 0 mm 2 m/s 763 mmHg 93%
01:00 +6°C° 0 mm 2 m/s 763 mmHg 92%
02:00 +6°C° 0 mm 2 m/s 763 mmHg 92%
03:00 +6°C° 0 mm 2 m/s 763 mmHg 92%
04:00 +7°C° 0 mm 1 m/s 763 mmHg 92%
05:00 +7°C° 0 mm 1 m/s 762 mmHg 92%
06:00 +7°C° 0 mm 1 m/s 762 mmHg 93%
07:00 +7°C° 0 mm 1 m/s 762 mmHg 92%
08:00 +7°C° 0 mm 1 m/s 762 mmHg 91%
09:00 +7°C° 0 mm 1 m/s 762 mmHg 90%
10:00 +8°C° 0 mm 1 m/s 761 mmHg 88%
11:00 +8°C° 0 mm 1 m/s 761 mmHg 86%
12:00 +8°C° 0 mm 1 m/s 760 mmHg 83%
13:00 +8°C° 0 mm 1 m/s 760 mmHg 84%
14:00 +8°C° 0 mm 1 m/s 759 mmHg 85%
15:00 +8°C° 0 mm 1 m/s 759 mmHg 86%
16:00 +7°C° 0 mm 2 m/s 758 mmHg 87%
17:00 +7°C° 0 mm 2 m/s 758 mmHg 89%
18:00 +6°C° 0 mm 2 m/s 757 mmHg 90%
19:00 +6°C° 0 mm 2 m/s 757 mmHg 89%
20:00 +5°C° 0 mm 3 m/s 757 mmHg 88%
21:00 +4°C° 0 mm 3 m/s 756 mmHg 87%
22:00 +4°C° 0 mm 3 m/s 756 mmHg 86%
23:00 +4°C° 0 mm 3 m/s 755 mmHg 85%

Demain, 3 Décembre, Jeudi

Heure Température Précipitation Vent Pression Humidité
00:00 +4°C° 0 mm 4 m/s 754 mmHg 84%
01:00 +4°C° 0.2 mm 4 m/s 753 mmHg 86%
02:00 +4°C° 0.2 mm 4 m/s 753 mmHg 88%
03:00 +3°C° 0.2 mm 5 m/s 752 mmHg 90%
04:00 +4°C° 0.3 mm 4 m/s 751 mmHg 90%
05:00 +5°C° 0.3 mm 4 m/s 751 mmHg 90%
06:00 +5°C° 0.3 mm 3 m/s 750 mmHg 90%
07:00 +5°C° 0.1 mm 3 m/s 749 mmHg 88%
08:00 +5°C° 0.1 mm 3 m/s 749 mmHg 86%
09:00 +5°C° 0.1 mm 3 m/s 748 mmHg 83%
10:00 +5°C° 0 mm 4 m/s 747 mmHg 80%
11:00 +5°C° 0 mm 4 m/s 747 mmHg 77%
12:00 +6°C° 0 mm 5 m/s 746 mmHg 74%
13:00 +5°C° 0 mm 5 m/s 745 mmHg 78%
14:00 +4°C° 0 mm 6 m/s 744 mmHg 81%
15:00 +3°C° 0 mm 6 m/s 743 mmHg 84%
16:00 +3°C° 0.1 mm 6 m/s 742 mmHg 85%
17:00 +3°C° 0.1 mm 6 m/s 741 mmHg 86%
18:00 +3°C° 0.1 mm 6 m/s 740 mmHg 87%
19:00 +4°C° 0.1 mm 6 m/s 739 mmHg 86%
20:00 +4°C° 0.1 mm 6 m/s 738 mmHg 85%
21:00 +4°C° 0.1 mm 7 m/s 737 mmHg 84%
22:00 +4°C° 0.2 mm 7 m/s 737 mmHg 84%
23:00 +5°C° 0.2 mm 7 m/s 736 mmHg 84%

Après-demain, 4 Décembre, Vendredi

Heure Température Précipitation Vent Pression Humidité
00:00 +5°C° 0.2 mm 8 m/s 735 mmHg 83%
01:00 +5°C° 0.1 mm 7 m/s 734 mmHg 84%
02:00 +5°C° 0.1 mm 6 m/s 734 mmHg 85%
03:00 +5°C° 0.1 mm 6 m/s 733 mmHg 85%
04:00 +5°C° 0.3 mm 6 m/s 733 mmHg 85%
05:00 +5°C° 0.3 mm 7 m/s 733 mmHg 85%
06:00 +5°C° 0.3 mm 7 m/s 732 mmHg 85%
07:00 +5°C° 0.1 mm 7 m/s 732 mmHg 84%
08:00 +5°C° 0.1 mm 7 m/s 732 mmHg 83%
09:00 +5°C° 0.1 mm 7 m/s 732 mmHg 82%
10:00 +5°C° 0.1 mm 7 m/s 732 mmHg 78%
11:00 +5°C° 0.1 mm 8 m/s 732 mmHg 75%
12:00 +5°C° 0.1 mm 8 m/s 732 mmHg 72%
13:00 +5°C° 0.1 mm 8 m/s 733 mmHg 74%
14:00 +5°C° 0.1 mm 8 m/s 733 mmHg 76%
15:00 +4°C° 0.1 mm 8 m/s 733 mmHg 78%
16:00 +4°C° 0.1 mm 7 m/s 734 mmHg 81%
17:00 +3°C° 0.1 mm 6 m/s 735 mmHg 84%
18:00 +3°C° 0.1 mm 5 m/s 736 mmHg 87%
19:00 +3°C° 0.1 mm 5 m/s 736 mmHg 87%
20:00 +3°C° 0.1 mm 5 m/s 737 mmHg 87%
21:00 +2°C° 0.1 mm 5 m/s 738 mmHg 87%
22:00 +2°C° 0 mm 5 m/s 738 mmHg 87%
23:00 +3°C° 0 mm 4 m/s 739 mmHg 87%

5 Décembre, Samedi

Heure Température Précipitation Vent Pression Humidité
00:00 +3°C° 0 mm 4 m/s 739 mmHg 87%
01:00 +1°C° 0 mm 4 m/s 740 mmHg 88%
02:00 +2°C° 0 mm 3 m/s 740 mmHg 89%
03:00 +1°C° 0 mm 3 m/s 741 mmHg 90%
04:00 +1°C° 0 mm 3 m/s 741 mmHg 90%
05:00 +1°C° 0 mm 3 m/s 741 mmHg 90%
06:00 0°C° 0 mm 3 m/s 742 mmHg 91%
07:00 0°C° 0 mm 3 m/s 742 mmHg 89%
08:00 +2°C° 0 mm 2 m/s 742 mmHg 87%
09:00 +2°C° 0 mm 2 m/s 743 mmHg 85%
10:00 +3°C° 0 mm 2 m/s 743 mmHg 81%
11:00 +4°C° 0 mm 2 m/s 743 mmHg 77%
12:00 +5°C° 0 mm 2 m/s 743 mmHg 73%
13:00 +5°C° 0 mm 2 m/s 743 mmHg 75%
14:00 +4°C° 0 mm 2 m/s 744 mmHg 77%
15:00 +4°C° 0 mm 2 m/s 744 mmHg 80%
16:00 +4°C° 0 mm 2 m/s 744 mmHg 82%
17:00 +3°C° 0 mm 2 m/s 744 mmHg 85%
18:00 +2°C° 0 mm 3 m/s 744 mmHg 87%
19:00 +2°C° 0 mm 2 m/s 745 mmHg 88%
20:00 +2°C° 0 mm 2 m/s 745 mmHg 88%
21:00 +2°C° 0 mm 2 m/s 745 mmHg 89%
22:00 +2°C° 0 mm 2 m/s 745 mmHg 89%
23:00 +2°C° 0 mm 2 m/s 745 mmHg 89%

6 Décembre, Dimanche

Heure Température Précipitation Vent Pression Humidité
00:00 +1°C° 0 mm 2 m/s 745 mmHg 89%
01:00 +1°C° 0 mm 2 m/s 744 mmHg 90%
02:00 +1°C° 0 mm 2 m/s 744 mmHg 90%
03:00 +1°C° 0 mm 2 m/s 744 mmHg 91%
04:00 +1°C° 0 mm 2 m/s 744 mmHg 91%
05:00 +1°C° 0 mm 2 m/s 744 mmHg 91%
06:00 -1°C° 0 mm 2 m/s 744 mmHg 90%
07:00 +1°C° 0 mm 2 m/s 744 mmHg 89%
08:00 +1°C° 0 mm 2 m/s 744 mmHg 87%
09:00 +2°C° 0 mm 2 m/s 744 mmHg 86%
10:00 +1°C° 0 mm 3 m/s 744 mmHg 82%
11:00 +2°C° 0 mm 3 m/s 744 mmHg 78%
12:00 +3°C° 0 mm 3 m/s 743 mmHg 75%
13:00 +3°C° 0 mm 3 m/s 743 mmHg 77%
14:00 +3°C° 0 mm 2 m/s 743 mmHg 80%
15:00 +3°C° 0 mm 2 m/s 743 mmHg 82%
16:00 +3°C° 0.1 mm 2 m/s 744 mmHg 87%
17:00 +3°C° 0.1 mm 2 m/s 744 mmHg 91%
18:00 +3°C° 0.1 mm 2 m/s 744 mmHg 95%
19:00 +3°C° 0.1 mm 2 m/s 744 mmHg 94%
20:00 +3°C° 0.1 mm 2 m/s 745 mmHg 94%
21:00 +4°C° 0.1 mm 1 m/s 745 mmHg 94%
22:00 +3°C° 0 mm 2 m/s 745 mmHg 93%
23:00 +3°C° 0 mm 2 m/s 745 mmHg 93%

7 Décembre, Lundi

Heure Température Précipitation Vent Pression Humidité
00:00 +2°C° 0 mm 3 m/s 746 mmHg 92%
01:00 +1°C° 0 mm 3 m/s 746 mmHg 91%
02:00 0°C° 0 mm 4 m/s 746 mmHg 90%
03:00 -1°C° 0 mm 5 m/s 746 mmHg 89%
04:00 -1°C° 0 mm 6 m/s 746 mmHg 87%
05:00 -1°C° 0 mm 6 m/s 746 mmHg 86%
06:00 -1°C° 0 mm 7 m/s 746 mmHg 84%
07:00 -1°C° 0.1 mm 8 m/s 746 mmHg 84%
08:00 -1°C° 0.1 mm 8 m/s 746 mmHg 83%
09:00 0°C° 0.1 mm 9 m/s 746 mmHg 82%
10:00 0°C° 0.7 mm 9 m/s 746 mmHg 83%
11:00 0°C° 0.7 mm 9 m/s 746 mmHg 85%
12:00 +1°C° 0.7 mm 10 m/s 746 mmHg 86%
13:00 +1°C° 0 mm 10 m/s 746 mmHg 85%
14:00 +1°C° 0 mm 10 m/s 746 mmHg 84%
15:00 +2°C° 0 mm 10 m/s 747 mmHg 83%
16:00 +2°C° 0.1 mm 9 m/s 747 mmHg 84%
17:00 +2°C° 0.1 mm 9 m/s 747 mmHg 85%
18:00 +2°C° 0.1 mm 9 m/s 747 mmHg 86%
19:00 +2°C° 0.1 mm 9 m/s 748 mmHg 86%
20:00 +2°C° 0.1 mm 8 m/s 748 mmHg 86%
21:00 +2°C° 0.1 mm 8 m/s 748 mmHg 86%
22:00 +2°C° 0.1 mm 8 m/s 748 mmHg 86%
23:00 +3°C° 0.1 mm 7 m/s 749 mmHg 85%
Voir plus

Nous avons besoin de votre consentement

Meteoprog et ses fournisseurs de services peuvent stocker et accéder à des données personnelles telles que des cookies, des identifiants d'appareils ou d'autres technologies similaires sur votre appareil et traiter ces données pour personnaliser le contenu et les publicités, ainsi que pour fournir des fonctionnalités de médias sociaux et analyser le trafic.

  • Stocker et/ou accéder à des informations sur votre appareil

    Des cookies, des identifiants d'appareils ou d'autres informations peuvent être stockés ou accessibles sur votre appareil aux fins indiquées ci-dessus.

  • Annonces et contenus personnalisés, mesure des annonces et des contenus, connaissance de l'audience et développement de produits

    Les annonces et le contenu peuvent être personnalisés en fonction d'un profil. D'autres données peuvent être ajoutées pour mieux personnaliser les annonces et le contenu. Les performances des publicités et du contenu peuvent être mesurées. Il est possible d'obtenir des informations sur le public qui a vu les publicités et le contenu. Ces données peuvent être utilisées pour développer ou améliorer l'expérience de l'utilisateur, les systèmes et les logiciels.

En cliquant sur "J'accepte", vous autorisez l'utilisation de cookies, des identifiants d'appareils, des balises web ou d'autres technologies similaires. Vos paramètres peuvent être modifiés dans le navigateur de votre appareil.

Dans certains cas, des intérêts légitimes peuvent être invoqués plutôt qu'un consentement. Vous pouvez en savoir plus à ce sujet dans notre Politique de confidentialité et de cookies.